Washington, IA

1:22 AM CDT on April 27, 2017 (GMT -0500)
Washington Municipal

Weather History for KAWG - April, 2014

Change the Weather History Date:

Friday, April 4, 2014

  Actual Average Record
Temperature  
Mean Temperature 38 °F -  
Max Temperature 42 °F 56 °F 84 °F (2005)
Min Temperature 33 °F 36 °F 19 °F (2002)
Degree Days  
Heating Degree Days 28    
Moisture  
Dew Point 33 °F    
Average Humidity 82    
Maximum Humidity 100    
Minimum Humidity 57    
Precipitation  
Precipitation 0.00 in - - ()
Sea Level Pressure  
Sea Level Pressure 29.80 in    
Wind  
Wind Speed 16 mph (WNW)    
Max Wind Speed 33 mph    
Max Gust Speed 41 mph    
Visibility 7 miles    
Events Fog    
Averages and records for this station are not official NWS values.
T = Trace of Precipitation, MM = Missing Value Source: NWS Daily Summary

Daily Weather History Graph

Daily Weather History Graph

Search for Another Location

Airport or City:

Trip Planner

Search our weather history database for the weather conditions in past years. The results will help you decide how hot, cold, wet, or windy it might be!

Date:

Astronomy

Apr. 04, 2014 Rise Set
Actual Time 6:44 AM CDT 7:35 PM CDT
Civil Twilight 6:16 AM CDT 8:03 PM CDT
Nautical Twilight 5:43 AM CDT 8:36 PM CDT
Astronomical Twilight 5:09 AM CDT 9:10 PM CDT
Moon 9:59 AM CDT (4/4) No Moon Set
Length of Visible Light 13h 46m
Length of Day
12h 50m
Waxing Crescent, 25% of the Moon is Illuminated
Apr 4
Waxing Crescent
Apr 7
First Quarter
Apr 15
Full
Apr 22
Last Quarter
Apr 29
New

Hourly Weather History & Observations

Time (CDT) Temp. Windchill Dew Point Humidity Pressure Visibility Wind Dir Wind Speed Gust Speed Precip Events Conditions
12:15 AM 39.2 °F 32.5 °F 39.2 °F 100% 29.54 in 0.2 mi ENE 10.4 mph - N/A Fog Fog
12:35 AM 39.2 °F 33.0 °F 39.2 °F 100% 29.54 in 0.2 mi East 9.2 mph - N/A Fog Fog
12:55 AM 39.2 °F 32.5 °F 39.2 °F 100% 29.52 in 0.2 mi East 10.4 mph - N/A Fog Fog
1:15 AM 39.2 °F 32.5 °F 39.2 °F 100% 29.50 in 0.2 mi East 10.4 mph - N/A   Overcast
1:35 AM 39.2 °F - 39.2 °F 100% 29.53 in 0.2 mi Calm Calm - N/A Fog Fog
1:55 AM 41.0 °F - 41.0 °F 100% 29.52 in 0.2 mi Calm Calm - N/A   Overcast
2:15 AM 41.0 °F - 41.0 °F 100% 29.52 in 0.2 mi Calm Calm - N/A Fog Fog
2:35 AM 41.0 °F 35.2 °F 41.0 °F 100% 29.52 in 0.2 mi West 9.2 mph - N/A Fog Fog
2:55 AM 39.2 °F 32.0 °F 39.2 °F 100% 29.52 in 1.0 mi WNW 11.5 mph - N/A   Overcast
3:15 AM 39.2 °F 31.6 °F 39.2 °F 100% 29.51 in 1.8 mi WNW 12.7 mph - N/A   Overcast
3:35 AM 39.2 °F 33.6 °F 39.2 °F 100% 29.51 in 2.0 mi WNW 8.1 mph - N/A   Overcast
3:55 AM 39.2 °F 33.6 °F 39.2 °F 100% 29.52 in 1.5 mi West 8.1 mph - N/A   Overcast
4:15 AM 39.2 °F 34.2 °F 39.2 °F 100% 29.53 in 1.2 mi West 6.9 mph - N/A   Overcast
4:35 AM 39.2 °F 35.0 °F 39.2 °F 100% 29.54 in 0.8 mi West 5.8 mph - N/A   Overcast
4:55 AM 37.4 °F 26.4 °F 37.4 °F 100% 29.55 in 3.0 mi West 23.0 mph 33.4 mph N/A   Overcast
5:15 AM 35.6 °F 24.5 °F 35.6 °F 100% 29.58 in 4.0 mi West 20.7 mph 29.9 mph N/A   Overcast
5:35 AM 35.6 °F 25.9 °F 35.6 °F 100% 29.59 in 3.0 mi West 16.1 mph 24.2 mph N/A   Overcast
5:55 AM 35.6 °F 25.9 °F 35.6 °F 100% 29.59 in 3.0 mi West 16.1 mph 24.2 mph N/A   Overcast
6:15 AM 35.6 °F 26.2 °F 35.6 °F 100% 29.60 in 1.5 mi West 15.0 mph 21.9 mph N/A   Overcast
6:35 AM 35.6 °F 25.2 °F 35.6 °F 100% 29.61 in 1.5 mi West 18.4 mph 24.2 mph N/A   Overcast
6:55 AM 35.6 °F 24.5 °F 35.6 °F 100% 29.63 in 3.0 mi WNW 20.7 mph 28.8 mph N/A   Overcast
7:15 AM 35.6 °F 24.0 °F 33.8 °F 93% 29.65 in 2.5 mi WNW 23.0 mph - N/A   Overcast
7:35 AM 35.6 °F 24.8 °F 33.8 °F 93% 29.67 in 4.0 mi WNW 19.6 mph 27.6 mph N/A   Overcast
7:55 AM 33.8 °F 21.6 °F 33.8 °F 100% 29.68 in 8.0 mi WNW 23.0 mph 31.1 mph N/A   Overcast
8:15 AM 33.8 °F 21.0 °F 32.0 °F 93% 29.69 in 5.0 mi WNW 25.3 mph 34.5 mph N/A   Overcast
8:35 AM 33.8 °F 21.3 °F 32.0 °F 93% 29.71 in 7.0 mi WNW 24.2 mph 32.2 mph N/A   Overcast
8:55 AM 33.8 °F 21.6 °F 32.0 °F 93% 29.72 in 10.0 mi WNW 23.0 mph 31.1 mph N/A   Overcast
9:15 AM 33.8 °F 21.6 °F 30.2 °F 87% 29.73 in 10.0 mi WNW 23.0 mph 35.7 mph N/A   Overcast
9:35 AM 33.8 °F 20.5 °F 30.2 °F 87% 29.74 in 10.0 mi WNW 27.6 mph 34.5 mph N/A   Overcast
9:55 AM 33.8 °F 19.6 °F 30.2 °F 87% 29.75 in 10.0 mi WNW 32.2 mph 39.1 mph N/A   Overcast
10:15 AM 33.8 °F 21.6 °F 30.2 °F 87% 29.76 in 10.0 mi WNW 23.0 mph 36.8 mph N/A   Overcast
10:35 AM 33.8 °F 20.3 °F 30.2 °F 87% 29.77 in 10.0 mi WNW 28.8 mph 39.1 mph N/A   Overcast
10:55 AM 35.6 °F 22.7 °F 30.2 °F 81% 29.79 in 10.0 mi WNW 28.8 mph 36.8 mph N/A   Overcast
11:15 AM 35.6 °F 22.7 °F 30.2 °F 81% 29.80 in 10.0 mi WNW 28.8 mph 38.0 mph N/A   Overcast
11:35 AM 35.6 °F 22.5 °F 30.2 °F 81% 29.81 in 10.0 mi WNW 29.9 mph 39.1 mph N/A   Overcast
11:55 AM 37.4 °F 24.6 °F 30.2 °F 75% 29.82 in 10.0 mi WNW 32.2 mph 39.1 mph N/A   Overcast
12:15 PM 37.4 °F 25.2 °F 30.2 °F 75% 29.82 in 10.0 mi WNW 28.8 mph 38.0 mph N/A   Overcast
12:35 PM 39.2 °F 27.8 °F 30.2 °F 70% 29.83 in 10.0 mi WNW 27.6 mph 35.7 mph N/A   Overcast
1:15 PM 39.2 °F 28.0 °F 30.2 °F 70% 29.85 in 10.0 mi WNW 26.5 mph 35.7 mph N/A   Overcast
1:35 PM 39.2 °F 26.8 °F 28.4 °F 65% 29.86 in 10.0 mi WNW 33.4 mph 41.4 mph N/A   Overcast
1:55 PM 39.2 °F 28.5 °F 30.2 °F 70% 29.87 in 10.0 mi WNW 24.2 mph 40.3 mph N/A   Overcast
2:15 PM 39.2 °F 27.6 °F 28.4 °F 65% 29.88 in 10.0 mi NW 28.8 mph 39.1 mph N/A   Overcast
2:35 PM 41.0 °F 30.7 °F 30.2 °F 65% 29.88 in 10.0 mi NW 25.3 mph 34.5 mph N/A   Overcast
2:55 PM 41.0 °F 30.2 °F 28.4 °F 61% 29.88 in 10.0 mi WNW 27.6 mph 38.0 mph N/A   Overcast
3:15 PM 42.8 °F 32.3 °F 28.4 °F 57% 29.89 in 10.0 mi WNW 29.9 mph 41.4 mph N/A   Overcast
3:55 PM 41.0 °F 30.2 °F 28.4 °F 61% 29.91 in 10.0 mi WNW 27.6 mph 35.7 mph N/A   Overcast
4:15 PM 41.0 °F 30.5 °F 28.4 °F 61% 29.92 in 10.0 mi NW 26.5 mph 35.7 mph N/A   Overcast
4:35 PM 42.8 °F 32.9 °F 28.4 °F 57% 29.93 in 10.0 mi NW 26.5 mph - N/A   Overcast
4:55 PM 41.0 °F 30.9 °F 30.2 °F 65% 29.94 in 10.0 mi WNW 24.2 mph - N/A   Overcast
5:15 PM 41.0 °F 31.4 °F 30.2 °F 65% 29.94 in 10.0 mi WNW 21.9 mph 29.9 mph N/A   Overcast
5:35 PM 41.0 °F 32.5 °F 30.2 °F 65% 29.96 in 10.0 mi WNW 17.3 mph 26.5 mph N/A   Overcast
5:55 PM 41.0 °F 32.5 °F 28.4 °F 61% 29.97 in 10.0 mi WNW 17.3 mph 32.2 mph N/A   Overcast
6:15 PM 41.0 °F 31.9 °F 30.2 °F 65% 29.98 in 10.0 mi WNW 19.6 mph 27.6 mph N/A   Overcast
6:35 PM 41.0 °F 31.4 °F 30.2 °F 65% 29.99 in 10.0 mi WNW 21.9 mph 28.8 mph N/A   Overcast
6:55 PM 41.0 °F 32.8 °F 30.2 °F 65% 30.00 in 10.0 mi WNW 16.1 mph - N/A   Overcast
7:15 PM 39.2 °F 29.6 °F 30.2 °F 70% 30.01 in 10.0 mi WNW 19.6 mph 26.5 mph N/A   Overcast
7:35 PM 39.2 °F 29.6 °F 30.2 °F 70% 30.02 in 10.0 mi WNW 19.6 mph 25.3 mph N/A   Overcast
7:55 PM 39.2 °F 30.8 °F 30.2 °F 70% 30.03 in 10.0 mi WNW 15.0 mph 20.7 mph N/A   Overcast
8:15 PM 39.2 °F 30.2 °F 30.2 °F 70% 30.04 in 10.0 mi WNW 17.3 mph 24.2 mph N/A   Overcast
8:35 PM 39.2 °F 31.6 °F 30.2 °F 70% 30.06 in 10.0 mi WNW 12.7 mph 18.4 mph N/A   Overcast
8:55 PM 39.2 °F 30.8 °F 30.2 °F 70% 30.07 in 10.0 mi WNW 15.0 mph - N/A   Overcast
9:15 PM 39.2 °F 30.8 °F 30.2 °F 70% 30.08 in 10.0 mi WNW 15.0 mph 23.0 mph N/A   Overcast
9:35 PM 39.2 °F 31.2 °F 30.2 °F 70% 30.09 in 10.0 mi WNW 13.8 mph - N/A   Overcast
9:55 PM 37.4 °F 30.3 °F 30.2 °F 75% 30.09 in 10.0 mi WNW 10.4 mph - N/A   Overcast
10:15 PM 37.4 °F 29.8 °F 30.2 °F 75% 30.10 in 10.0 mi WNW 11.5 mph - N/A   Overcast
10:35 PM 37.4 °F 30.8 °F 30.2 °F 75% 30.11 in 10.0 mi WNW 9.2 mph - N/A   Overcast
10:55 PM 37.4 °F 29.8 °F 30.2 °F 75% 30.12 in 10.0 mi WNW 11.5 mph - N/A   Overcast
11:15 PM 37.4 °F 29.8 °F 30.2 °F 75% 30.12 in 10.0 mi WNW 11.5 mph - N/A   Overcast
11:35 PM 37.4 °F 29.8 °F 30.2 °F 75% 30.12 in 10.0 mi WNW 11.5 mph - N/A   Overcast
11:55 PM 37.4 °F 30.3 °F 30.2 °F 75% 30.13 in 10.0 mi WNW 10.4 mph - N/A   Overcast